Regional Weather Roundup
Issued by NWS

Home | Current Version | Previous Version | Graphics & Text | Print | Product List | Glossary On
Versions: 1 2 3 4 5 6 7 8 9 10 11 12 13 14 15 16 17 18 19 20 21 22 23 24 25 26 27 28 29 30 31 32 33 34 35 36 37 38 39 40 41 42 43 44 45 46 47 48 49 50
000
ASUS45 KCYS 251910
RWRWY

WYOMING REGIONAL WEATHER ROUNDUP
NATIONAL WEATHER SERVICE CHEYENNE WY
100 PM MDT MON MAY 25 2015

NOTE:  "FAIR" INDICATES FEW OR NO CLOUDS BELOW 12,000 FEET
WITH NO SIGNIFICANT WEATHER AND/OR OBSTRUCTIONS TO VISIBILITY.

WYZ001-252000-
YELLOWSTONE NATIONAL PARK

CITY           SKY/WX    TMP DP  RH WIND       PRES   REMARKS
LK YELLOWSTONE   N/A     49  32  52 E7        30.04F
W YELLOWSTONE  NOT AVBL

$$
WYZ002>013-054>058-071-098>099-252000-
NORTHERN WYOMING

CITY           SKY/WX    TMP DP  RH WIND       PRES   REMARKS
JACKSON        MOSUNNY   59  43  55 S9        29.97F
CODY           FAIR      57  45  62 N6        29.95S
GREYBULL       PTSUNNY   63  45  51 NW7       29.90F
WORLAND        PTSUNNY   62  48  60 NW8       29.91F
SHERIDAN       CLOUDY    60  46  59 CALM      29.93F
BUFFALO        PTSUNNY   54  48  80 N8        29.96S
GILLETTE       CLOUDY    56  49  77 N12       29.91F
HULETT         LGT RAIN  52  52 100 N7        29.91S
NEWCASTLE      MOCLDY    61  45  55 N10G18    29.86S

$$
WYZ014>020-022>026-101>103-252000-
CENTRAL WYOMING

CITY           SKY/WX    TMP DP  RH WIND       PRES   REMARKS
BIG PINEY      LGT RAIN  45  41  86 S5        30.03S
PINEDALE       CLOUDY    50  37  62 NW18G25   30.03R
DUBOIS         CLOUDY    52  34  50 NE5       29.98F
LANDER         FAIR      58  44  60 E8        29.95F
RIVERTON       FAIR      55  44  66 E5        29.97F
CASPER         CLOUDY    57  43  59 N12       29.94F
DOUGLAS        PTSUNNY   58  50  75 N16G23    29.91S

$$
WYZ021-027>030-104>119-252000-
SOUTHERN WYOMING

CITY           SKY/WX    TMP DP  RH WIND       PRES   REMARKS
EVANSTON       TSTM      44  42  93 N12       30.06R
KEMMERER       MOCLDY    52  39  62 NE14G20   30.02F
FORT BRIDGER   MOCLDY    50  46  87 W3        30.06S THUNDER
ROCK SPRINGS   PTSUNNY   53  41  63 W6        30.01F
DIXON          MOCLDY    49  42  76 W10       30.05F
RAWLINS        LGT RAIN  48  44  86 W6        30.00F
SARATOGA       MOCLDY    52  41  66 W12G17    30.01S
LARAMIE        PTSUNNY   52  38  58 NW21G30   29.96S
CHEYENNE       RAIN      50  41  71 N15G22    29.94R
TORRINGTON     RAIN      54  51  90 W10       29.87S FOG
PINE BLUFFS    LGT RAIN  50  45  81 N16       29.93R

$$


USA.gov is the U.S. government's official web portal to all federal, state and local government web resources and services.